This is the latest recevied weather packets stored in our database for station/object OK2ILA-3. If no packets are shown the sender has not sent any weather packets the latest 10 day(s).
| Time | Temp. | Humidity | Pressure | Rain* | Wind** | Luminosity | Snow |
|---|---|---|---|---|---|---|---|
| 1777853328 | 11.11° C | 100% | 4352 hPa | 0 mm | - | - | - |
| 1777852720 | 11.67° C | 2% | 512 hPa | 0 mm | - | - | - |
| 1777852331 | 11.67° C | 4% | 3533 hPa | 0 mm | - | - | - |
| 1777852112 | 11.67° C | 4% | 3533 hPa | 0 mm | - | - | - |
| 1777851508 | 11.67° C | 1% | 14.8 hPa | 0 mm | - | - | - |
| 1777850904 | 11.67° C | 1% | 14.8 hPa | 0 mm | - | - | - |
| 1777850297 | 11.67° C | 100% | 14.8 hPa | 0 mm | - | - | - |
| 1777849865 | 11.67° C | 100% | 14.8 hPa | 0 mm | - | - | - |
| 1777849693 | 11.67° C | 100% | 14.8 hPa | 0 mm | - | - | - |
| 1777849087 | 11.67° C | 8% | 14.8 hPa | 0 mm | - | - | - |
| 1777848482 | 12.22° C | 11% | 0.4 hPa | 0 mm | - | - | - |
| 1777847878 | 11.67° C | 3% | 0.4 hPa | 0 mm | - | - | - |
| 1777847270 | 11.11° C | 3% | 0.4 hPa | 0 mm | - | - | - |
| 1777846663 | 11.67° C | 100% | 594.6 hPa | 0 mm | - | - | - |
| 1777846054 | 11.11° C | 3% | 6329 hPa | 0 mm | - | - | - |
| 1777845445 | 11.67° C | 3% | 6329 hPa | 0 mm | - | - | - |
| 1777844981 | 11.67° C | 5% | 6329 hPa | 0 mm | - | - | - |
| 1777844840 | 11.67° C | 5% | 6329 hPa | 0 mm | - | - | - |
| 1777844234 | 11.67° C | 12% | 0 hPa | 0 mm | - | - | - |
| 1777843625 | 12.22° C | 95% | 0 hPa | 0 mm | - | - | - |
| 1777843018 | 12.22° C | 2% | 0 hPa | 0 mm | - | - | - |
| 1777842412 | 12.22° C | 95% | 0 hPa | 0 mm | - | - | - |
| 1777841199 | 12.78° C | 51% | 0 hPa | 0 mm | - | - | - |
| 1777840594 | 12.78° C | 12% | 230.6 hPa | 0 mm | - | - | - |
| 1777839986 | 12.78° C | 12% | 1229.5 hPa | 0 mm | - | - | - |
* Rain latest 24 hours (hover to see other rain measurements)
** Current wind speed in m/s (hover to see current wind gust speed)